"Period start","avg(HW err(1)/warn(2) (#))","avg(Visibility (m))","avg(Weather code (#))","avg(Precip intensity (mm/h))","min(HW err(1)/warn(2) (#))","max(HW err(1)/warn(2) (#))","std(HW err(1)/warn(2) (#))","med(HW err(1)/warn(2) (#))","min(Visibility (m))","max(Visibility (m))","std(Visibility (m))","med(Visibility (m))","min(Weather code (#))","max(Weather code (#))","std(Weather code (#))","med(Weather code (#))","min(Precip intensity (mm/h))","max(Precip intensity (mm/h))","std(Precip intensity (mm/h))","med(Precip intensity (mm/h))"
2016-05-06 00:00:00,2,44661,0,0.00,2,2,0,2,35135,49730,4588,46248,0,0,0,0,0.00,0.00,0.00,0.00
2016-05-06 00:10:00,2,46280,0,0.00,2,2,0,2,31064,50000,5627,48505,0,0,0,0,0.00,0.00,0.00,0.00
2016-05-06 00:20:00,2,37198,0,0.00,2,2,0,2,25912,49604,6834,36278,0,0,0,0,0.00,0.00,0.00,0.00
2016-05-06 00:30:00,2,37308,0,0.00,2,2,0,2,29272,47684,5844,37586,0,0,0,0,0.00,0.00,0.00,0.00
2016-05-06 00:40:00,2,35770,0,0.00,2,2,0,2,26778,50000,6998,36138,0,0,0,0,0.00,0.00,0.00,0.00
2016-05-06 00:50:00,2,35453,0,0.00,2,2,0,2,25994,45524,6423,34615,0,0,0,0,0.00,0.00,0.00,0.00
2016-05-06 01:00:00,2,37462,0,0.00,2,2,0,2,31786,47460,4819,36442,0,0,0,0,0.00,0.00,0.00,0.00
2016-05-06 01:10:00,2,37810,0,0.00,2,2,0,2,25661,50000,7877,35419,0,0,0,0,0.00,0.00,0.00,0.00
2016-05-06 01:20:00,2,30312,0,0.00,2,2,0,2,22182,38917,5776,30232,0,0,0,0,0.00,0.00,0.00,0.00
2016-05-06 01:30:00,2,38048,0,0.00,2,2,0,2,25241,50000,9178,38484,0,0,0,0,0.00,0.00,0.00,0.00
2016-05-06 01:40:00,2,35235,0,0.00,2,2,0,2,27463,43991,5113,36298,0,0,0,0,0.00,0.00,0.00,0.00
2016-05-06 01:50:00,2,26691,0,0.00,2,2,0,2,18949,40632,7079,24376,0,0,0,0,0.00,0.00,0.00,0.00
2016-05-06 02:00:00,2,30569,0,0.00,2,2,0,2,19581,50000,8508,28748,0,0,0,0,0.00,0.00,0.00,0.00
2016-05-06 02:10:00,2,38202,0,0.00,2,2,0,2,25361,50000,7587,38647,0,0,0,0,0.00,0.00,0.00,0.00
2016-05-06 02:20:00,2,37209,0,0.00,2,2,0,2,23334,50000,8564,41126,0,0,0,0,0.00,0.00,0.00,0.00
2016-05-06 02:30:00,2,32487,0,0.00,2,2,0,2,17919,46117,9815,33030,0,0,0,0,0.00,0.00,0.00,0.00
2016-05-06 02:40:00,2,29453,0,0.00,2,2,0,2,15220,45144,9693,31684,0,0,0,0,0.00,0.00,0.00,0.00
2016-05-06 02:50:00,2,29988,0,0.00,2,2,0,2,17131,45163,8529,27121,0,0,0,0,0.00,0.00,0.00,0.00
2016-05-06 03:00:00,2,38901,0,0.00,2,2,0,2,27539,49211,6232,38580,0,0,0,0,0.00,0.00,0.00,0.00
2016-05-06 03:10:00,2,36812,0,0.00,2,2,0,2,15608,50000,11540,33307,0,0,0,0,0.00,0.00,0.00,0.00
2016-05-06 03:20:00,2,39568,0,0.00,2,2,0,2,29066,50000,6922,38197,0,0,0,0,0.00,0.00,0.00,0.00
2016-05-06 03:30:00,2,42739,0,0.00,2,2,0,2,32706,50000,6464,41518,0,0,0,0,0.00,0.00,0.00,0.00
2016-05-06 03:40:00,2,32123,0,0.00,2,2,0,2,21829,50000,8533,29958,0,0,0,0,0.00,0.00,0.00,0.00
2016-05-06 03:50:00,2,37307,0,0.00,2,2,0,2,25778,50000,7731,35970,0,0,0,0,0.00,0.00,0.00,0.00
2016-05-06 04:00:00,2,34638,0,0.00,2,2,0,2,15713,50000,10797,34224,0,0,0,0,0.00,0.00,0.00,0.00
2016-05-06 04:10:00,2,32554,0,0.00,2,2,0,2,23215,44434,7307,30381,0,0,0,0,0.00,0.00,0.00,0.00
2016-05-06 04:20:00,2,32841,35,0.02,2,2,0,2,21089,50000,9698,31895,0,71,25,41,0.00,0.10,0.03,0.00
2016-05-06 04:30:00,2,22607,73,0.04,2,2,0,2,10953,41936,8598,21176,71,77,3,71,0.00,0.15,0.06,0.03
2016-05-06 04:40:00,2,23521,71,0.07,2,2,0,2,15089,45805,9505,20216,71,71,0,71,0.00,0.15,0.06,0.05
2016-05-06 04:50:00,2,30822,71,0.05,2,2,0,2,15960,50000,10324,29983,71,71,0,71,0.00,0.15,0.05,0.05
2016-05-06 05:00:00,2,34310,37,0.04,2,2,0,2,20111,50000,10621,33228,0,77,37,36,0.00,0.40,0.12,0.00
2016-05-06 05:10:00,2,34822,64,0.03,2,2,0,2,22478,47934,9785,36819,0,71,21,71,0.00,0.20,0.06,0.00
2016-05-06 05:20:00,2,25837,71,0.07,2,2,0,2,17267,38563,6570,25790,71,71,0,71,0.00,0.15,0.05,0.05
2016-05-06 05:30:00,2,25729,71,0.20,2,2,0,2,7072,40617,10736,28518,71,71,0,71,0.00,0.75,0.26,0.05
2016-05-06 05:40:00,2,30984,71,0.03,2,2,0,2,13433,50000,11870,30520,71,71,0,71,0.00,0.10,0.03,0.00
2016-05-06 05:50:00,2,25858,71,0.09,2,2,0,2,20715,29965,2872,26012,71,71,0,71,0.00,0.35,0.11,0.05
2016-05-06 06:00:00,2,21392,71,0.16,2,2,0,2,12474,33311,7050,19506,71,71,0,71,0.00,0.70,0.22,0.05
2016-05-06 06:10:00,2,26674,64,0.06,2,2,0,2,20811,38687,5819,24980,0,71,21,71,0.00,0.15,0.06,0.03
2016-05-06 06:20:00,2,34044,36,0.02,2,2,0,2,18337,46704,9004,36052,0,71,36,36,0.00,0.10,0.03,0.00
2016-05-06 06:30:00,2,37191,50,0.01,2,2,0,2,17418,50000,11591,40335,0,77,33,71,0.00,0.10,0.03,0.00
2016-05-06 06:40:00,2,33551,28,0.00,2,2,0,2,21219,44752,7354,34605,0,71,35,0,0.00,0.00,0.00,0.00
2016-05-06 06:50:00,2,44919,8,0.00,2,2,0,2,36664,50000,5532,47734,0,77,23,0,0.00,0.00,0.00,0.00
2016-05-06 07:00:00,2,35885,14,0.01,2,2,0,2,24262,41321,4607,36706,0,71,28,0,0.00,0.10,0.03,0.00
2016-05-06 07:10:00,2,38760,43,0.02,2,2,0,2,29366,48556,6273,37039,0,71,35,71,0.00,0.10,0.03,0.00
2016-05-06 07:20:00,2,40486,14,0.01,2,2,0,2,23224,50000,9082,40662,0,71,28,0,0.00,0.15,0.05,0.00
2016-05-06 07:30:00,2,36944,71,0.04,2,2,0,2,25254,47470,7050,38196,71,71,0,71,0.00,0.20,0.07,0.00
2016-05-06 07:40:00,2,40991,44,0.00,2,2,0,2,33833,50000,5452,39668,0,77,36,71,0.00,0.00,0.00,0.00
2016-05-06 07:50:00,2,34342,38,0.03,2,2,0,2,19083,50000,9269,32034,0,71,28,41,0.00,0.30,0.09,0.00
2016-05-06 08:00:00,2,41171,73,0.01,2,2,0,2,34669,49328,4206,41232,71,77,3,71,0.00,0.05,0.02,0.00
2016-05-06 08:10:00,2,40822,60,0.01,2,2,0,2,27101,50000,7601,40798,0,77,30,77,0.00,0.05,0.02,0.00
2016-05-06 08:20:00,2,35210,57,0.06,2,2,0,2,15481,49413,12127,35923,0,71,28,71,0.00,0.35,0.11,0.00
2016-05-06 08:30:00,2,42581,71,0.03,2,2,0,2,36382,50000,5456,42178,71,71,0,71,0.00,0.10,0.04,0.00
2016-05-06 08:40:00,2,37927,73,0.03,2,2,0,2,25960,50000,6987,37692,71,77,3,71,0.00,0.15,0.05,0.00
2016-05-06 08:50:00,2,40545,75,0.04,2,2,0,2,29135,50000,7849,40340,71,77,3,77,0.00,0.20,0.06,0.00
2016-05-06 09:00:00,2,39300,72,0.03,2,2,0,2,21512,48438,7723,40406,71,77,2,71,0.00,0.10,0.04,0.00
2016-05-06 09:10:00,2,41786,61,0.01,2,2,0,2,34472,50000,4687,40736,0,77,31,77,0.00,0.05,0.02,0.00
2016-05-06 09:20:00,2,43210,22,0.01,2,2,0,2,33497,50000,5438,44426,0,78,34,0,0.00,0.05,0.02,0.00
2016-05-06 09:30:00,2,36900,75,0.04,2,2,0,2,17300,47817,11448,42475,71,78,3,77,0.00,0.20,0.06,0.00
2016-05-06 09:40:00,2,44275,14,0.00,2,2,0,2,29740,50000,7256,47433,0,71,28,0,0.00,0.00,0.00,0.00
2016-05-06 09:50:00,2,41847,71,0.03,2,2,0,2,24231,50000,8359,43262,71,71,0,71,0.00,0.15,0.05,0.00
2016-05-06 10:00:00,2,41765,77,0.01,2,2,0,2,31396,50000,5487,43098,77,78,0,77,0.00,0.05,0.02,0.00
2016-05-06 10:10:00,2,33764,72,0.07,2,2,0,2,15192,43332,7504,33519,71,77,2,71,0.00,0.30,0.11,0.00
2016-05-06 10:20:00,2,42376,73,0.01,2,2,0,2,24982,50000,6854,43574,71,77,3,71,0.00,0.05,0.02,0.00
2016-05-06 10:30:00,2,33676,73,0.04,2,2,0,2,15302,49280,9611,33226,71,77,3,71,0.00,0.15,0.05,0.05
2016-05-06 10:40:00,2,41578,71,0.04,2,2,0,2,26648,49355,6010,42312,71,71,0,71,0.00,0.25,0.08,0.00
2016-05-06 10:50:00,2,39905,75,0.05,2,2,0,2,24173,50000,8281,40066,71,77,3,77,0.00,0.35,0.10,0.00
2016-05-06 11:00:00,2,36412,72,0.03,2,2,0,2,18600,49859,8299,36882,71,77,2,71,0.00,0.10,0.03,0.00
2016-05-06 11:10:00,2,34378,71,0.11,2,2,0,2,20932,46207,7707,34210,71,71,0,71,0.00,0.25,0.09,0.10
2016-05-06 11:20:00,2,32055,71,0.06,2,2,0,2,21859,40176,5865,33640,71,71,0,71,0.00,0.20,0.07,0.03
2016-05-06 11:30:00,2,37870,65,0.04,2,2,0,2,17177,50000,10913,41694,41,71,12,71,0.00,0.25,0.08,0.00
2016-05-06 11:40:00,2,40809,71,0.03,2,2,0,2,29654,46461,5344,42124,71,71,0,71,0.00,0.15,0.05,0.00
2016-05-06 11:50:00,2,40131,74,0.04,2,2,0,2,24769,50000,7622,42826,71,77,3,74,0.00,0.30,0.10,0.00
2016-05-06 12:00:00,2,38128,75,0.06,2,2,0,2,26084,48452,7514,37972,71,77,3,77,0.00,0.20,0.08,0.00
2016-05-06 12:10:00,2,39318,74,0.02,2,2,0,2,27025,47716,5617,41199,71,78,3,74,0.00,0.05,0.02,0.00
2016-05-06 12:20:00,2,41142,74,0.02,2,2,0,2,27054,49445,6499,43311,71,77,3,74,0.00,0.05,0.02,0.00
2016-05-06 12:30:00,2,44312,76,0.02,2,2,0,2,37973,50000,4078,43804,71,77,2,77,0.00,0.05,0.02,0.00
2016-05-06 12:40:00,2,43197,73,0.04,2,2,0,2,25852,50000,8829,48078,71,77,3,71,0.00,0.45,0.13,0.00
2016-05-06 12:50:00,2,46607,78,0.01,2,2,0,2,42626,50000,2979,45948,77,78,0,78,0.00,0.05,0.02,0.00
2016-05-06 13:00:00,2,41836,77,0.01,2,2,0,2,34405,49404,4627,40652,77,78,0,77,0.00,0.05,0.02,0.00
2016-05-06 13:10:00,2,40254,75,0.03,2,2,0,2,27981,50000,6244,38467,71,77,3,77,0.00,0.10,0.03,0.00
2016-05-06 13:20:00,2,38024,73,0.02,2,2,0,2,21991,50000,8291,40422,71,77,3,71,0.00,0.10,0.03,0.00
2016-05-06 13:30:00,2,41286,60,0.00,2,2,0,2,30996,50000,5568,41589,0,77,30,77,0.00,0.00,0.00,0.00
2016-05-06 13:40:00,2,43055,0,0.00,2,2,0,2,33287,50000,4645,42546,0,0,0,0,0.00,0.00,0.00,0.00
2016-05-06 13:50:00,2,48355,0,0.00,2,2,0,2,43928,50000,2067,49690,0,0,0,0,0.00,0.00,0.00,0.00
2016-05-06 14:00:00,2,42893,0,0.00,2,2,0,2,34030,50000,5093,43200,0,0,0,0,0.00,0.00,0.00,0.00
2016-05-06 14:10:00,2,48040,0,0.00,2,2,0,2,39861,50000,3142,50000,0,0,0,0,0.00,0.00,0.00,0.00
2016-05-06 14:20:00,2,45669,0,0.00,2,2,0,2,28835,50000,6792,49415,0,0,0,0,0.00,0.00,0.00,0.00
2016-05-06 14:30:00,2,18831,68,0.00,2,2,0,2,13021,25449,3098,18646,0,77,23,77,0.00,0.00,0.00,0.00
2016-05-06 14:40:00,2,21651,77,0.01,2,2,0,2,17974,29816,3815,20462,77,77,0,77,0.00,0.05,0.02,0.00
2016-05-06 14:50:00,2,19208,77,0.02,2,2,0,2,10141,28950,6290,17512,77,77,0,77,0.00,0.05,0.02,0.00
2016-05-06 15:00:00,2,20910,77,0.01,2,2,0,2,15718,26669,3094,20626,77,77,0,77,0.00,0.05,0.02,0.00
2016-05-06 15:10:00,2,17583,75,0.03,2,2,0,2,13437,24046,3017,17145,71,77,3,77,0.00,0.10,0.03,0.03
2016-05-06 15:20:00,2,14543,72,0.06,2,2,0,2,11360,20538,2897,13416,71,77,2,71,0.00,0.30,0.09,0.03
2016-05-06 15:30:00,2,10962,75,0.04,2,2,0,2,9541,11879,858,11465,71,77,3,77,0.00,0.10,0.04,0.03
2016-05-06 15:40:00,2,9000,77,0.06,2,2,0,2,7946,10241,736,8840,77,77,0,77,0.00,0.15,0.04,0.05
2016-05-06 15:50:00,2,7760,75,0.03,2,2,0,2,6707,8990,678,7799,54,77,7,77,0.00,0.10,0.04,0.00
2016-05-06 16:00:00,2,5906,63,0.03,2,2,0,2,5444,6359,271,5896,54,77,11,54,0.00,0.15,0.05,0.00
2016-05-06 16:10:00,2,6600,44,0.00,2,2,0,2,5860,7005,374,6706,10,77,34,44,0.00,0.00,0.00,0.00
2016-05-06 16:20:00,2,6872,56,0.02,2,2,0,2,6415,7503,374,6771,10,77,30,74,0.00,0.05,0.02,0.00
2016-05-06 16:30:00,2,5286,77,0.03,2,2,0,2,4338,6937,819,4900,77,77,0,77,0.00,0.15,0.04,0.03
2016-05-06 16:40:00,2,5248,74,0.07,2,2,0,2,4407,6449,526,5208,71,77,3,74,0.00,0.15,0.05,0.05
2016-05-06 16:50:00,2,5487,76,0.08,2,2,0,2,3854,7726,1437,5246,71,77,2,77,0.00,0.20,0.07,0.05
2016-05-06 17:00:00,2,3510,77,0.09,2,2,0,2,2816,4229,467,3620,77,77,0,77,0.05,0.25,0.06,0.05
2016-05-06 17:10:00,2,3788,73,0.12,2,2,0,2,3021,4359,396,3946,71,77,3,71,0.00,0.30,0.10,0.10
2016-05-06 17:20:00,2,3983,77,0.07,2,2,0,2,3300,4811,455,3907,77,77,0,77,0.00,0.15,0.06,0.05
2016-05-06 17:30:00,2,4169,62,0.08,2,2,0,2,2627,6199,1019,3898,10,77,26,77,0.00,0.35,0.10,0.08
2016-05-06 17:40:00,2,4506,49,0.03,2,2,0,2,4002,5396,475,4308,10,77,32,71,0.00,0.05,0.02,0.05
2016-05-06 17:50:00,2,4282,77,0.11,2,2,0,2,3577,4789,395,4415,77,77,0,77,0.00,0.25,0.07,0.10
2016-05-06 18:00:00,2,8689,73,0.06,2,2,0,2,3960,18062,4792,6902,71,77,3,71,0.00,0.15,0.04,0.05
2016-05-06 18:10:00,2,9183,77,0.08,2,2,0,2,1994,17626,6176,8536,77,77,0,77,0.00,0.20,0.06,0.05
2016-05-06 18:20:00,2,2338,74,0.11,2,2,0,2,1956,2998,347,2228,71,77,3,74,0.05,0.25,0.06,0.10
2016-05-06 18:30:00,2,2710,69,0.06,2,2,0,2,2022,3043,327,2910,54,77,10,74,0.00,0.15,0.06,0.05
2016-05-06 18:40:00,2,1765,74,0.08,2,2,0,2,1556,2094,208,1702,71,77,3,74,0.00,0.15,0.05,0.08
2016-05-06 18:50:00,2,1798,74,0.05,2,2,0,2,1670,1932,81,1822,71,77,3,74,0.00,0.10,0.02,0.05
2016-05-06 19:00:00,2,1823,49,0.02,2,2,0,2,1706,1929,81,1826,10,77,32,71,0.00,0.05,0.02,0.00
2016-05-06 19:10:00,2,1974,10,0.00,2,2,0,2,1900,2046,49,1978,10,10,0,10,0.00,0.00,0.00,0.00
2016-05-06 19:20:00,2,1982,61,0.02,2,2,0,2,1867,2149,80,1964,10,77,26,71,0.00,0.05,0.02,0.00
2016-05-06 19:30:00,2,2354,68,0.03,2,2,0,2,1828,2951,385,2339,54,77,9,71,0.00,0.05,0.03,0.03
2016-05-06 19:40:00,2,3292,76,0.02,2,2,0,2,2883,3714,268,3422,71,77,2,77,0.00,0.05,0.02,0.00
2016-05-06 19:50:00,2,3635,77,0.00,2,2,0,2,3273,3838,192,3700,77,77,0,77,0.00,0.00,0.00,0.00
2016-05-06 20:00:00,2,3149,17,0.00,2,2,0,2,2727,3722,307,3146,10,77,20,10,0.00,0.00,0.00,0.00
2016-05-06 20:10:00,2,2317,10,0.00,2,2,0,2,2165,2452,107,2328,10,10,0,10,0.00,0.00,0.00,0.00
2016-05-06 20:20:00,2,2036,10,0.00,2,2,0,2,1723,2400,193,2047,10,10,0,10,0.00,0.00,0.00,0.00
2016-05-06 20:30:00,2,1850,10,0.00,2,2,0,2,1614,1994,110,1884,10,10,0,10,0.00,0.00,0.00,0.00
2016-05-06 20:40:00,2,1884,10,0.00,2,2,0,2,1764,2241,147,1838,10,10,0,10,0.00,0.00,0.00,0.00
2016-05-06 20:50:00,2,2047,10,0.00,2,2,0,2,1845,2343,170,1978,10,10,0,10,0.00,0.00,0.00,0.00
2016-05-06 21:00:00,2,2570,10,0.00,2,2,0,2,2228,3461,450,2400,10,10,0,10,0.00,0.00,0.00,0.00
2016-05-06 21:10:00,2,4632,10,0.00,2,2,0,2,3714,5547,607,4584,10,10,0,10,0.00,0.00,0.00,0.00
2016-05-06 21:20:00,2,3362,10,0.00,2,2,0,2,2139,5136,833,3254,10,10,0,10,0.00,0.00,0.00,0.00
2016-05-06 21:30:00,2,3268,10,0.00,2,2,0,2,1943,4267,642,3300,10,10,0,10,0.00,0.00,0.00,0.00
2016-05-06 21:40:00,2,2923,10,0.00,2,2,0,2,1611,4838,1062,2601,10,10,0,10,0.00,0.00,0.00,0.00
2016-05-06 21:50:00,2,5398,10,0.00,2,2,0,2,1561,10976,2550,5456,10,10,0,10,0.00,0.00,0.00,0.00
2016-05-06 22:00:00,2,2406,10,0.00,2,2,0,2,1282,3772,917,2574,10,10,0,10,0.00,0.00,0.00,0.00
2016-05-06 22:10:00,2,5339,10,0.00,2,2,0,2,2368,8072,1818,5012,10,10,0,10,0.00,0.00,0.00,0.00
2016-05-06 22:20:00,2,13444,10,0.00,2,2,0,2,7206,21176,3828,13514,10,10,0,10,0.00,0.00,0.00,0.00
2016-05-06 22:30:00,2,22841,1,0.00,2,2,0,2,13561,36690,6937,21216,0,10,3,0,0.00,0.00,0.00,0.00
2016-05-06 22:40:00,2,25922,0,0.00,2,2,0,2,19707,33632,4813,24460,0,0,0,0,0.00,0.00,0.00,0.00
2016-05-06 22:50:00,2,29576,0,0.00,2,2,0,2,20215,35096,5051,31107,0,0,0,0,0.00,0.00,0.00,0.00
2016-05-06 23:00:00,2,29820,0,0.00,2,2,0,2,20984,41392,7031,28546,0,0,0,0,0.00,0.00,0.00,0.00
2016-05-06 23:10:00,2,33890,0,0.00,2,2,0,2,22410,43632,7077,32438,0,0,0,0,0.00,0.00,0.00,0.00
2016-05-06 23:20:00,2,32742,0,0.00,2,2,0,2,27075,41570,4901,32069,0,0,0,0,0.00,0.00,0.00,0.00
2016-05-06 23:30:00,2,34864,0,0.00,2,2,0,2,22586,44418,6301,34888,0,0,0,0,0.00,0.00,0.00,0.00
2016-05-06 23:40:00,2,45999,0,0.00,2,2,0,2,41800,50000,3233,45188,0,0,0,0,0.00,0.00,0.00,0.00
2016-05-06 23:50:00,2,36555,0,0.00,2,2,0,2,23369,45725,6744,37349,0,0,0,0,0.00,0.00,0.00,0.00
